Regional Weather Roundup
Issued by NWS

Home | Current Version | Previous Version | Text Only | Print | Product List | Glossary On
Versions: 1 2 3 4 5 6 7 8 9 10 11 12 13 14 15 16 17 18 19 20 21 22 23 24 25 26 27 28 29 30 31 32 33 34 35 36 37 38 39 40 41 42 43 44 45 46 47 48 49 50
000
ASUS45 KREV 260510
RWRNV
NEVADA REGIONAL WEATHER ROUNDUP
NATIONAL WEATHER SERVICE RENO NV
900 PM PST SUN JAN 25 2015

NOTE: "FAIR" INDICATES FEW OR NO CLOUDS BELOW 12,000 FEET WITH NO
SIGNIFICANT WEATHER AND/OR OBSTRUCTIONS TO VISIBILITY.

NVZ001-003-004-260600-
WESTERN NEVADA

CITY           SKY/WX    TMP DP  RH WIND       PRES   REMARKS
RENO           CLEAR     45  28  51 CALM      30.32R
CARSON CITY    FAIR      37  23  56 E3        30.34R
PYRAMID LAKE     N/A     46 N/A N/A S6          N/A
FALLON         PTCLDY    35  17  47 CALM      30.30S
LOVELOCK       PTCLDY    32  18  56 CALM      30.29S
HAWTHORNE      CLEAR     39  25  56 CALM      30.31S
$$

NVZ002-CAZ072-073-260600-
NORTHERN AND CENTRAL SIERRA

CITY           SKY/WX    TMP DP  RH WIND       PRES   REMARKS
S. LAKE TAHOE  CLEAR     34  23  64 CALM      30.33R
TRUCKEE        CLEAR     32  23  69 E5        30.34R
SQUAW VLY 8000   N/A     37  25  60 CALM        N/A
BLUE CANYON    CLEAR     62  17  17 VRB5      30.21R
MAMMOTH LAKES  FAIR      46  18  31 E9        30.33S
BRIDGEPORT     FAIR      34  18  52 CALM      30.33R
$$

NVZ030-031-036-260600-
NORTHERN NEVADA

CITY           SKY/WX    TMP DP  RH WIND       PRES   REMARKS
ELKO           CLEAR     31  27  85 CALM      30.38R
WINNEMUCCA     CLEAR     32  27  81 E6        30.33S
WENDOVER       CLEAR     32  27  80 N3        30.41S
$$

NVZ035-037-260600-
CENTRAL NEVADA

CITY           SKY/WX    TMP DP  RH WIND       PRES   REMARKS
ELY            CLEAR     29  23  78 MISG      30.41S
EUREKA           N/A     31  26  82 CALM      30.40R
$$

NVZ013-014-260600-
SOUTH CENTRAL NEVADA

CITY           SKY/WX    TMP DP  RH WIND       PRES   REMARKS
TONOPAH        CLEAR     42  24  49 N12       30.33S
$$

NVZ017-020-022-260600-
SOUTHERN NEVADA

CITY           SKY/WX    TMP DP  RH WIND       PRES   REMARKS
LAS VEGAS      MOCLDY    58  33  39 SW9       30.12R
N. LAS VEGAS   MOCLDY    57  32  38 W3        30.15R
NELLIS AFB     MOCLDY    60  35  38 VRB5      30.15R
HENDERSON      MOCLDY    53  34  48 S7        30.19R
MERCURY        PTCLDY    55  29  36 E8        30.19R
$$



USA.gov is the U.S. government's official web portal to all federal, state and local government web resources and services.